Station LWTV2 - 8635750 - Lewisetta, VA Image indicating link to RSS feed of recent meteorological observations for station LWTV2


Conditions at LWTV2 as of
(2:00 am EDT)
0600 GMT on 04/19/2024:
     

Click on the graph icon in the table below to see a time series plot of the last five days of that observation.

5-day plot - Wind Direction Wind Direction (WDIR): E ( 90 deg true )
5-day plot - Wind Speed Wind Speed (WSPD): 8.9 kts
5-day plot - Wind Gust Wind Gust (GST): 11.1 kts
5-day plot - Atmospheric Pressure Atmospheric Pressure (PRES):30.12 in
5-day plot - Pressure Tendency Pressure Tendency (PTDY):-0.01 in ( Falling )
5-day plot - Air Temperature Air Temperature (ATMP): 52.3 °F
5-day plot - Water Temperature Water Temperature (WTMP): 64.8 °F
5-day plot - Wind Chill Wind Chill (CHILL): 48.9 °F
5-day plot - Wind Speed at 10 Meters Wind Speed at 10 meters (WSPD10M): 9.7 kts
5-day plot - Wind Speed at 20 Meters Wind Speed at 20 meters (WSPD20M): 9.7 kts
5-day plot -  Wind Speed, Wind Gust and Atmospheric Pressure Combined plot of Wind Speed, Gust, and Air Pressure
NOS Water Level Observation Network Water Level
Previous observations
TIME
(EDT)
5-day plot - Wind Direction
WDIR
 
5-day plot - Wind Speed
WSPD
kts
5-day plot - Wind Gust
GST
kts
5-day plot - Wave Height
WVHT
ft
5-day plot - Dominant Wave Period
DPD
sec
5-day plot - Average Wave Period
APD
sec
5-day plot - Mean Wave Direction
MWD
 
5-day plot - Atmospheric Pressure
PRES
in
5-day plot - Pressure Tendency
PTDY
in
5-day plot - Air Temperature
ATMP
°F
5-day plot - Water Temperature
WTMP
°F
5-day plot - Dew Point
DEWP
°F
5-day plot - Salinity
SAL
psu
5-day plot - Visibility
VIS
nmi
5-day plot - Tide (above MLLW)
TIDE
ft
2024-04-19 01:54 amESE 8.0 12.0----30.12- 52.7 64.6----
2024-04-19 01:48 am E 8.0 11.1----30.12- 52.5 64.6----
2024-04-19 01:42 amESE 7.0 11.1----30.13- 53.1 64.6----
2024-04-19 01:36 amESE 8.0 9.9----30.13- 52.9 64.6----
2024-04-19 01:30 amESE 8.0 9.9----30.13- 53.1 64.6----
2024-04-19 01:24 am E 8.9 11.1----30.13- 52.9 64.6----
2024-04-19 01:18 amESE 11.1 14.0----30.13- 53.6 64.6----
2024-04-19 01:12 am E 8.0 11.1----30.13- 53.2 64.6----
2024-04-19 01:06 am E 8.9 11.1----30.13- 53.2 64.8----
2024-04-19 01:00 amESE 11.1 13.0----30.12+0.02 53.4 64.6----
2024-04-19 12:54 am E 9.9 13.0----30.12- 53.4 64.6----
2024-04-19 12:48 amESE 11.1 13.0----30.12- 53.4 64.6----
2024-04-19 12:42 amESE 9.9 13.0----30.12- 53.8 64.4----
2024-04-19 12:36 am E 9.9 14.0----30.12- 53.6 64.6----
2024-04-19 12:30 am E 9.9 13.0----30.13- 53.6 64.6----
2024-04-19 12:24 am E 8.0 12.0----30.12- 53.8 64.4----
2024-04-19 12:18 am E 9.9 13.0----30.13- 53.6 64.4----
2024-04-19 12:12 am E 8.9 13.0----30.13- 53.6 64.4----
2024-04-19 12:06 am E 8.9 12.0----30.14- 53.8 64.4----
2024-04-19 12:00 am E 9.9 14.0----30.14+0.09 53.8 64.6----
2024-04-18 11:54 pm E 11.1 15.0----30.14- 53.8 64.8----
2024-04-18 11:48 pm E 11.1 15.9----30.14- 53.6 64.6----
2024-04-18 11:42 pm E 11.1 14.0----30.14- 53.8 64.8----
2024-04-18 11:36 pm E 11.1 14.0----30.14- 53.8 65.1----
2024-04-18 11:30 pm E 9.9 15.0----30.14- 53.8 64.6----
2024-04-18 11:24 pm E 12.0 15.9----30.14- 53.8 64.8----
2024-04-18 11:18 pm E 12.0 15.9----30.14- 53.8 65.5----
2024-04-18 11:12 pm E 12.0 15.9----30.14- 53.8 65.5----
2024-04-18 11:06 pm E 13.0 17.1----30.14- 54.0 65.5----
2024-04-18 11:00 pm E 11.1 14.0----30.14+0.12 54.9 65.5----
2024-04-18 10:54 pm E 11.1 15.0----30.13- 54.9 65.5----
2024-04-18 10:48 pm E 12.0 15.0----30.13- 55.4 65.5----
2024-04-18 10:42 pm E 13.0 17.1----30.12- 55.6 65.3----
2024-04-18 10:36 pm E 13.0 17.1----30.12- 56.1 65.3----
2024-04-18 10:30 pm E 13.0 18.1----30.12- 56.5 65.5----
2024-04-18 10:24 pm E 14.0 17.1----30.11- 57.0 65.5----
2024-04-18 10:18 pm E 15.0 18.1----30.11- 57.4 65.7----
2024-04-18 10:12 pm E 13.0 18.1----30.11- 58.3 65.5----
2024-04-18 10:06 pmESE 11.1 13.0----30.11- 59.0 65.5----
2024-04-18 10:00 pmESE 9.9 13.0----30.10+0.11 58.6 65.5----
2024-04-18 09:54 pmESE 8.9 11.1----30.10- 59.0 65.5----
2024-04-18 09:48 pm SE 8.9 9.9----30.10- 58.3 65.5----
2024-04-18 09:42 pm SE 8.0 9.9----30.09- 58.6 65.5----
2024-04-18 09:36 pm SE 8.0 9.9----30.09- 58.5 65.7----
2024-04-18 09:30 pm SE 8.0 9.9----30.09- 58.8 65.8----
2024-04-18 09:24 pm SE 7.0 9.9----30.08- 58.8 66.0----
2024-04-18 09:18 pmSSE 6.0 7.0----30.07- 58.6 66.4----
2024-04-18 09:12 pmSSE 7.0 8.9----30.07- 59.0 66.2----
2024-04-18 09:06 pmSSE 8.9 11.1----30.06- 59.0 66.2----
2024-04-18 09:00 pmSSE 11.1 13.0----30.05+0.06 59.2 66.2----
2024-04-18 08:54 pmSSE 13.0 15.0----30.05- 59.5 66.0----
2024-04-18 08:48 pmSSE 12.0 13.0----30.05- 60.1 65.8----
2024-04-18 08:42 pmSSE 9.9 12.0----30.04- 60.8 66.0----
2024-04-18 08:36 pmSSE 11.1 13.0----30.03- 61.5 66.0----
2024-04-18 08:30 pm SE 11.1 12.0----30.03- 62.2 66.0----
2024-04-18 08:24 pm SE 11.1 13.0----30.03- 63.0 66.0----
2024-04-18 08:18 pmESE 9.9 12.0----30.02- 62.2 65.8----
2024-04-18 08:12 pm E 9.9 12.0----30.02- 61.9 66.0----
2024-04-18 08:06 pm E 8.9 15.0----30.02- 64.4 66.0----
2024-04-18 08:00 pm NE 5.1 7.0----30.01+0.03 64.4 66.0----
2024-04-18 07:54 pmENE 4.1 7.0----30.01- 64.8 66.0----
2024-04-18 07:48 pm E 5.1 6.0----30.01- 65.5 66.0----
2024-04-18 07:42 pm E 5.1 7.0----30.00- 65.5 66.0----
2024-04-18 07:36 pmESE 5.1 7.0----30.00- 65.1 66.0----
2024-04-18 07:30 pm E 4.1 6.0----30.00- 65.8 66.2----
2024-04-18 07:24 pm E 5.1 6.0----30.00- 66.2 66.2----
2024-04-18 07:00 pmENE 7.0 8.9----30.00+0.03 68.4 66.4----
2024-04-18 06:54 pmENE 7.0 8.9----29.99- 67.5 66.2----
2024-04-18 06:48 pmENE 5.1 7.0----29.99- 68.0 66.4----
2024-04-18 06:42 pm NE 4.1 7.0----29.99- 69.1 66.6----
2024-04-18 06:36 pm NE 5.1 8.0----29.99- 68.4 66.6----
2024-04-18 06:30 pm NE 5.1 8.0----29.99- 68.5 66.2----
2024-04-18 06:24 pm NE 4.1 5.1----29.99- 68.5 65.8----
2024-04-18 06:18 pm NE 2.9 5.1----29.99- 68.4 65.8----
2024-04-18 06:12 pmENE 4.1 6.0----29.99- 68.5 65.8----
2024-04-18 06:06 pmENE 2.9 5.1----29.99- 69.4 66.0----
2024-04-18 06:00 pm NE 4.1 6.0----29.99+0.01- 65.3----
2024-04-18 05:54 pm NE 4.1 6.0----29.99-- 65.1----
2024-04-18 05:48 pm NE 5.1 8.0----29.99- 69.1 65.1----
2024-04-18 05:42 pm NE 5.1 7.0----29.99- 69.4 65.3----
2024-04-18 05:36 pm NE 5.1 7.0----29.99- 69.4 65.7----
2024-04-18 05:30 pm NE 5.1 7.0----29.99- 69.3 65.5----
2024-04-18 05:24 pm NE 5.1 8.0----29.98- 68.9 65.8----
2024-04-18 05:18 pm NE 5.1 8.0----29.98- 68.7 66.0----
2024-04-18 05:12 pm NE 5.1 7.0----29.98- 68.7 65.8----
2024-04-18 05:06 pm NE 5.1 7.0----29.98- 68.9 66.0----
2024-04-18 05:00 pm NE 5.1 7.0----29.98+0.00 68.9 65.7----
2024-04-18 04:54 pm NE 5.1 7.0----29.98- 68.9 65.7----
2024-04-18 04:48 pm NE 6.0 8.9----29.97- 68.9 66.0----
2024-04-18 04:42 pm NE 7.0 9.9----29.97- 69.4 66.2----
2024-04-18 04:36 pm NE 8.0 9.9----29.97- 69.6 66.2----
2024-04-18 04:30 pm NE 7.0 12.0----29.97- 69.4 66.0----
2024-04-18 04:24 pm NE 7.0 11.1----29.97- 68.7 66.4----
2024-04-18 04:18 pm NE 8.9 12.0----29.97- 69.1 66.7----
2024-04-18 04:12 pm NE 9.9 14.0----29.97- 69.4 66.9----
2024-04-18 04:06 pm NE 11.1 13.0----29.97- 69.1 66.9----
2024-04-18 04:00 pm NE 9.9 13.0----29.97-0.02 69.3 67.1----
2024-04-18 03:54 pm NE 9.9 13.0----29.97- 68.7 67.1----
2024-04-18 03:48 pmNNE 8.9 12.0----29.97- 68.7 66.7----
2024-04-18 03:42 pm NE 7.0 11.1----29.96- 68.4 66.4----
2024-04-18 03:36 pm NE 6.0 8.9----29.96- 68.2 66.6----
2024-04-18 03:30 pm E 4.1 7.0----29.97- 68.2 66.2----
2024-04-18 03:24 pmENE 7.0 11.1----29.97- 68.2 66.2----
2024-04-18 03:18 pm NE 7.0 8.9----29.98- 68.2 66.6----
2024-04-18 03:12 pm NE 8.0 12.0----29.97- 68.4 66.2----
2024-04-18 03:06 pm NE 8.9 13.0----29.97- 68.5 66.0----
2024-04-18 03:00 pm NE 8.9 12.0----29.98-0.01 68.5 65.7----
2024-04-18 02:54 pm NE 9.9 13.0----29.98- 69.1 65.5----
2024-04-18 02:48 pm NE 8.0 11.1----29.98- 68.9 65.7----
2024-04-18 02:42 pm NE 6.0 11.1----29.98- 69.6 65.5----
2024-04-18 02:36 pmENE 5.1 7.0----29.98- 69.4 65.8----
2024-04-18 02:30 pmENE 5.1 8.0----29.99- 69.6 65.7----
2024-04-18 02:24 pmENE 5.1 8.0----29.99- 68.7 65.8----
2024-04-18 02:18 pm E 4.1 6.0----29.99-- 65.8----
2024-04-18 02:12 pmESE 6.0 7.0----29.99- 66.7 65.7----
2024-04-18 02:06 pmESE 8.0 8.9----29.99- 66.7 65.5----
2024-04-18 02:00 pm E 5.1 7.0----29.99+0.00 66.6 65.5----
2024-04-18 01:54 pmESE 7.0 8.0----29.98- 65.7 65.3----
2024-04-18 01:48 pmESE 9.9 11.1----29.98- 64.0 65.1----
2024-04-18 01:42 pmESE 6.0 8.0----29.99- 64.8 64.9----
2024-04-18 01:36 pmESE 6.0 8.0----29.99- 64.4 64.9----
2024-04-18 01:30 pm E 8.0 9.9----29.99- 63.9 64.8----
2024-04-18 01:24 pm E 7.0 9.9----29.99- 63.9 64.6----
2024-04-18 01:18 pm E 8.0 12.0----29.99- 63.1 63.7----
2024-04-18 01:12 pmESE 8.9 11.1----29.99- 62.8 63.0----
2024-04-18 01:06 pmESE 8.0 11.1----29.99- 63.0 62.4----
2024-04-18 01:00 pmESE 8.9 11.1----29.99+0.00 63.0 62.6----
2024-04-18 12:54 pmESE 8.0 9.9----29.99- 62.8 62.8----
2024-04-18 12:48 pmESE 7.0 8.9----29.99- 62.4 62.4----
2024-04-18 12:42 pmESE 6.0 7.0----29.99- 62.8 62.4----
2024-04-18 12:36 pmESE 7.0 8.0----29.99- 62.2 62.2----
2024-04-18 12:30 pmESE 7.0 7.0----29.99- 61.9 62.2----
2024-04-18 12:24 pmESE 8.9 9.9----29.99- 61.3 62.2----
2024-04-18 12:18 pmESE 8.0 8.9----29.99- 61.2 62.2----
2024-04-18 12:12 pmESE 8.9 9.9----29.99- 61.0 62.2----
2024-04-18 12:06 pmESE 8.9 9.9----29.99- 61.3 62.1----
2024-04-18 12:00 pmESE 8.0 8.9----29.99+0.01 61.7 62.1----
2024-04-18 11:54 amESE 7.0 8.0----29.99- 61.5 62.2----
2024-04-18 11:48 amESE 8.0 8.9----29.99- 61.5 62.2----
2024-04-18 11:42 amESE 8.0 8.9----29.99- 61.5 62.2----
2024-04-18 11:36 amESE 6.0 7.0----29.99- 61.3 62.2----
2024-04-18 11:30 amESE 6.0 8.0----30.00- 60.6 62.2----
2024-04-18 11:24 amESE 8.0 8.9----30.00- 60.8 62.2----
2024-04-18 11:18 amESE 6.0 7.0----30.00- 60.6 62.4----
2024-04-18 11:12 amESE 6.0 7.0----30.00- 60.8 62.8----
2024-04-18 11:06 amESE 5.1 6.0----29.99- 60.6 62.8----
2024-04-18 11:00 amESE 5.1 5.1----29.99+0.02 60.4 62.8----
2024-04-18 10:54 amESE 5.1 5.1----29.99- 61.3 63.0----
2024-04-18 10:48 am E 4.1 5.1------------
2024-04-18 10:42 amESE 2.9 4.1------------
2024-04-18 10:36 am SE 1.9 2.9------------
2024-04-18 10:30 amESE 2.9 4.1----29.99- 61.0 63.0----
2024-04-18 10:24 amESE 2.9 4.1----29.99- 59.9 62.6----
2024-04-18 10:18 amESE 2.9 2.9----29.99- 59.4 62.2----
2024-04-18 10:12 am SE 2.9 2.9----29.98- 59.2 61.9----
2024-04-18 10:06 amESE 2.9 4.1----29.98- 59.7 62.1----
2024-04-18 10:00 amESE 1.9 2.9----29.98+0.04 59.2 62.1----
2024-04-18 09:54 am SE 2.9 4.1----29.98- 59.2 61.9----
2024-04-18 09:48 amESE 2.9 2.9----29.98- 60.3 61.5----
2024-04-18 09:42 am E 2.9 4.1----29.98- 59.7 61.5----
2024-04-18 09:36 amENE 2.9 5.1----29.98- 59.2 61.7----
2024-04-18 09:30 amENE 2.9 4.1----29.98- 59.2 62.6----
2024-04-18 09:24 amENE 2.9 4.1----29.98- 59.0 62.8----
2024-04-18 09:18 am E 2.9 4.1----29.98- 59.0 62.6----
2024-04-18 09:12 am NE 2.9 5.1----29.98- 58.6 62.6----
2024-04-18 09:06 am NE 5.1 7.0----29.98- 58.6 62.4----
2024-04-18 09:00 am NE 4.1 6.0----29.98+0.06 58.6 62.2----
2024-04-18 08:54 am NE 5.1 6.0----29.98- 58.1 62.4----
2024-04-18 08:48 am NE 2.9 6.0----29.98- 58.6 62.6----
2024-04-18 08:42 am NE 2.9 4.1----29.98- 58.3 63.0----
2024-04-18 08:36 amNNE 4.1 5.1----29.98- 58.1 62.8----
2024-04-18 08:30 amNNE 4.1 5.1----29.98- 58.1 62.8----
2024-04-18 08:24 amNNE 4.1 6.0----29.98- 58.1 63.9----
2024-04-18 08:18 am NE 5.1 5.1----29.98- 57.9 63.9----
2024-04-18 08:12 am NE 5.1 7.0----29.97- 57.9 63.3----
2024-04-18 08:06 am NE 5.1 6.0----29.97- 57.7 63.1----
2024-04-18 08:00 am NE 5.1 6.0----29.97+0.07 58.1 63.3----
2024-04-18 07:54 am NE 5.1 6.0----29.97- 58.1 63.9----
2024-04-18 07:48 am NE 5.1 6.0----29.97- 59.2 64.0----
2024-04-18 07:42 am NE 5.1 5.1----29.97- 59.2 64.0----
2024-04-18 07:36 am NE 5.1 6.0----29.96- 59.2 63.9----
2024-04-18 07:30 am NE 5.1 7.0----29.96- 59.4 64.2----
2024-04-18 07:24 am NE 4.1 5.1----29.96- 59.7 64.0----
2024-04-18 07:18 am NE 4.1 4.1----29.95- 60.1 64.0----
2024-04-18 07:12 am NE 2.9 4.1----29.95- 60.1 64.2----
2024-04-18 07:06 am NE 2.9 4.1----29.95- 60.1 64.0----
2024-04-18 07:00 am NE 4.1 4.1----29.95+0.07 60.4 64.2----
2024-04-18 06:54 amNNE 2.9 4.1----29.94- 61.7 64.2----
2024-04-18 06:48 amNNE 4.1 5.1----29.94- 62.2 64.2----
2024-04-18 06:42 am N 4.1 6.0----29.94- 63.1 64.2----
2024-04-18 06:36 amNNE 4.1 6.0----29.93- 65.1 64.0----
2024-04-18 06:30 am NW 4.1 5.1----29.93- 65.7 64.2----
2024-04-18 06:24 am NW 4.1 4.1----29.93- 65.7 64.2----
2024-04-18 06:18 am NW 4.1 5.1----29.93- 66.0 64.6----
2024-04-18 06:12 amNNW 5.1 5.1----29.93- 66.2 64.6----
2024-04-18 06:06 am NW 4.1 4.1----29.92- 65.8 64.6----
2024-04-18 06:00 am NW 4.1 5.1----29.92+0.05 66.4 64.6----
2024-04-18 05:54 am NW 5.1 5.1----29.92- 66.6 64.6----
2024-04-18 05:48 am NW 5.1 5.1----29.92- 66.9 64.6----
2024-04-18 05:42 am NW 5.1 6.0----29.91- 66.9 64.6----
2024-04-18 05:36 am NW 5.1 5.1----29.91- 66.2 64.6----
2024-04-18 05:30 amWNW 5.1 6.0----29.91- 66.4 64.6----
2024-04-18 05:24 amWNW 6.0 7.0----29.91- 66.7 64.6----
2024-04-18 05:18 amWNW 7.0 8.0----29.91- 66.7 64.6----
2024-04-18 05:12 amWNW 6.0 7.0----29.90- 66.6 64.6----
2024-04-18 05:06 amWNW 5.1 6.0----29.90- 66.7 64.6----
2024-04-18 05:00 amWNW 5.1 5.1----29.90+0.04 66.7 64.6----
2024-04-18 04:54 amWNW 6.0 6.0----29.90- 67.1 64.6----
2024-04-18 04:48 amWNW 5.1 7.0----29.89- 67.1 64.6----
2024-04-18 04:42 amWNW 7.0 7.0----29.89- 66.9 64.6----
2024-04-18 04:36 amWNW 6.0 7.0----29.89- 66.6 64.6----
2024-04-18 04:30 amWNW 5.1 6.0----29.89- 66.6 64.6----
2024-04-18 04:24 amWNW 5.1 5.1----29.88- 67.3 64.6----
2024-04-18 04:18 amWNW 5.1 5.1----29.88- 66.9 64.6----
2024-04-18 04:12 amWNW 5.1 6.0----29.88- 66.9 64.6----
2024-04-18 04:06 am W 1.9 2.9----29.88- 66.4 64.6----
2024-04-18 04:00 am W 2.9 4.1----29.87+0.01 67.5 64.6----
2024-04-18 03:54 amWNW 2.9 4.1----29.87- 67.3 64.4----
2024-04-18 03:48 am W 2.9 2.9----29.87- 67.3 64.4----
2024-04-18 03:42 am W 1.9 2.9----29.86- 67.6 64.2----
2024-04-18 03:36 amWSW 5.1 6.0----29.86- 68.2 64.2----
2024-04-18 03:30 am SW 5.1 6.0----29.85- 68.7 64.2----
2024-04-18 03:24 am SW 5.1 6.0----29.86- 68.0 64.4----
2024-04-18 03:18 am W 5.1 6.0----29.87- 68.7 64.4----
2024-04-18 03:12 am W 7.0 8.0----29.87- 69.1 64.4----
2024-04-18 03:06 am W 7.0 8.0----29.87- 69.6 64.4----
2024-04-18 03:00 am W 6.0 8.0----29.87+0.00 70.0 64.2----
2024-04-18 02:54 am W 8.0 8.9----29.88- 70.0 64.2----
2024-04-18 02:48 am W 8.9 12.0----29.88- 70.2 64.4----
2024-04-18 02:42 am W 9.9 15.0----29.88- 70.3 64.4----
2024-04-18 02:36 amWNW 12.0 14.0----29.89- 70.3 64.4----
2024-04-18 02:30 am W 8.9 11.1----29.88- 70.7 64.2----
2024-04-18 02:24 amWNW 8.9 12.0----29.88- 70.7 64.2----
2024-04-18 02:18 amWSW 8.9 12.0----29.86- 70.3 64.2----
2024-04-18 02:12 amWSW 11.1 15.0----29.85- 70.9 64.2----
2024-04-18 02:06 am SW 13.0 15.9----29.85- 71.1 64.2----
2024-04-18 02:00 amWSW 12.0 15.0----29.85-0.03 71.2 64.2----
2024-04-18 01:54 amWSW 11.1 14.0----29.86- 71.2 64.2----